Flag for Austria Weather past 2 weeks in Kirchdorf an der Krems, Upper Austria, Austria

Now
63 °F

Mild.


Feels Like: 63 °F
Forecast: 52 / 71 °F
Wind: 5 mph from Northwest

Location: Kremsmuenster

Current Time: May 30, 2015 at 12:50:52 AM

Latest Report: May 30, 2015 at 12:00 AM


Visibility: N/A

Pressure: 29.87 "Hg

Humidity: 59%

Dew point: 48 °F

Location of Kirchdorf an der KremsLocation

Historic Weather in Kirchdorf an der Krems — Graph

°F

Kirchdorf an der Krems temperature yesterday

Maximum temperature yesterday: 75 °F (at 3:00 PM)
Minimum temperature yesterday: 49 °F (at 5:00 AM)
Average temperature yesterday: 63 °F

Past Weeks' High & Low Weather Summary

 TemperatureHumidityPressure
High75 °F (May 29, 3:00 PM)96% (May 24, 8:00 AM)30.29 "Hg (May 24, 8:00 AM)
Low45 °F (May 21, 6:00 AM)36% (May 29, 4:00 PM)29.70 "Hg (May 18, 8:00 PM)
Average55 °F79%30.04 "Hg
* Reported Midnight between May 14 and May 15 — Midnight between May 29 and May 30, Kirchdorf an der Krems, Weather by CustomWeather, © 2015

Note: Actual official high and low records may vary slightly from our data, if they occured in-between our weather recording intervals... More about our weather records

Advertising

Kirchdorf an der Krems weather history for previous 24 hours

 ConditionsComfort  
Time TempWeatherWind HumidityBarometerVisibility
12:00 AM
Sat, May 30
63 °FMild.5 mph59%29.87 "HgN/A
10:00 PM
Fri, May 29
64 °FMild.3 mph55%29.79 "HgN/A
9:00 PM67 °FMild.6 mph51%29.78 "HgN/A
8:00 PM70 °FPassing clouds.6 mph46%29.77 "Hg19 mi
7:00 PM72 °FMild.6 mph42%29.77 "HgN/A
6:00 PM73 °FMild.5 mph42%29.79 "HgN/A
5:00 PM72 °FPartly sunny.5 mph41%29.81 "Hg34 mi
4:00 PM75 °FMild.2 mph36%29.82 "HgN/A
3:00 PM75 °FPassing clouds.13 mph41%29.85 "Hg4 mi
2:00 PM73 °FMild.3 mph43%29.87 "HgN/A
1:00 PM72 °FMild.1 mph49%29.90 "HgN/A
12:00 PM68 °FMild.2 mph47%29.93 "HgN/A
11:00 AM65 °FPassing clouds.2 mph53%29.96 "Hg34 mi
10:00 AM63 °FMild.1 mph63%29.97 "HgN/A
9:00 AM58 °FCool.1 mph67%29.99 "HgN/A
8:00 AM53 °FPartly sunny.2 mph76%30.01 "Hg34 mi
7:00 AM49 °FPartly sunny.5 mph79%30.01 "Hg37 mi
6:00 AM49 °FCool.1 mph83%30.01 "HgN/A
5:00 AM49 °FCool.1 mph82%30.01 "HgN/A
4:00 AM50 °FCool.3 mph77%30.00 "HgN/A
3:00 AM52 °FCool.5 mph73%30.00 "HgN/A
2:00 AM53 °FCool.6 mph72%30.00 "HgN/A
1:00 AM54 °FCool.7 mph70%30.01 "HgN/A
Weather by CustomWeather, © 2015

See weather overviewHow to use our weather pages